SORCE

Last updated on Sun Jun 21 2026 00:02:59 GMT+0000 (Coordinated Universal Time)

1 27651U 03004A 26171.39382147 .00001922 00000+0 14831-3 0 9995 2 27651 39.9898 243.3830 0016156 73.8065 286.4506 15.03725995272389
UTC large
Height (km)
Speed (km/s)
/
Latitude / Longitude
Inclination (degrees)
Orbital Period (minutes)
Azimuth
Elevation
Range (km)
Doppler Factor

Next 0 passes for location: London (51.5072 / 0.1276)

No passes found over London.
SORCE